CW2927 Weather Reports


time (UTC)temp
F
wind
direction
speed
knots
gust
knots
rain 1hr
in
rain 24hr
in
rain mn
in
humidity
%
barometer
mb
20210414104708 40 104 0.0 0.0 0.00 0.00 0.00 71 1017.6
20210414104216 40 105 0.0 0.0 0.00 0.00 0.00 71 1017.6
20210414102910 40 92 0.0 0.0 0.00 0.00 0.00 70 1017.5
20210414102645 40 94 0.0 0.0 0.00 0.00 0.00 70 1017.5
20210414100707 40 91 0.0 0.0 0.00 0.00 0.00 69 1017.3
20210414100225 40 94 0.0 0.0 0.00 0.00 0.00 69 1017.3
20210414094709 40 94 0.0 0.0 0.00 0.00 0.00 68 1017.3
20210414094217 40 94 0.0 0.0 0.00 0.00 0.00 68 1017.3
20210414092901 41 94 0.0 0.0 0.00 0.00 0.00 67 1017.2
20210414092642 41 94 0.0 0.0 0.00 0.00 0.00 67 1017.2
20210414090716 41 96 0.0 0.0 0.00 0.00 0.00 66 1017.1
20210414090227 41 99 0.0 0.0 0.00 0.00 0.00 66 1017.1
20210414084705 41 100 0.0 0.0 0.00 0.00 0.00 66 1017.1
20210414084209 41 100 0.0 0.0 0.00 0.00 0.00 66 1017.1
20210414082820 42 103 0.0 0.0 0.00 0.00 0.00 66 1017.0
20210414082452 42 103 0.0 0.0 0.00 0.00 0.00 66 1017.0
20210414080706 42 105 0.0 0.0 0.00 0.00 0.00 65 1017.1
20210414080208 42 108 0.0 0.0 0.00 0.00 0.00 65 1017.1
20210414074807 42 109 0.0 0.0 0.00 0.00 0.00 64 1017.1
20210414074214 42 110 0.0 0.0 0.00 0.00 0.00 64 1017.1
20210414072848 43 94 0.0 0.0 0.00 0.00 0.00 63 1017.1
20210414072641 43 94 0.0 0.0 0.00 0.00 0.00 63 1017.1
20210414070705 44 92 0.0 0.0 0.00 0.00 0.00 62 1017.1
20210414070221 44 91 0.0 0.0 0.00 0.00 0.00 62 1017.0
20210414064705 45 92 0.0 0.0 0.00 0.00 0.00 61 1017.1
20210414064217 45 90 0.0 0.0 0.00 0.00 0.00 61 1017.1
20210414062850 45 87 0.0 0.0 0.00 0.00 0.00 60 1017.1
20210414062444 45 89 0.0 0.0 0.00 0.00 0.00 60 1017.1
20210414060711 45 97 0.0 0.0 0.00 0.00 0.00 59 1017.0
20210414060313 45 98 0.0 0.0 0.00 0.00 0.00 59 1017.0
20210414054710 45 104 0.0 0.0 0.00 0.00 0.00 57 1017.1
20210414054215 46 104 0.0 0.0 0.00 0.00 0.00 57 1017.1
20210414052902 46 82 0.0 0.0 0.00 0.00 0.00 56 1017.2
20210414052701 46 92 0.0 0.0 0.00 0.00 0.00 55 1017.3
20210414050706 46 103 0.0 0.0 0.00 0.00 0.00 54 1017.2
20210414050336 46 108 0.0 0.0 0.00 0.00 0.00 53 1017.2
20210414044706 47 93 0.0 0.0 0.00 0.00 0.00 52 1017.3
20210414044211 47 89 0.0 0.0 0.00 0.00 0.00 52 1017.2
20210414042926 47 95 0.0 0.0 0.00 0.00 0.00 53 1017.2
20210414042702 47 78 0.0 0.0 0.00 0.00 0.00 53 1017.1
20210414040739 47 80 0.0 0.0 0.00 0.00 0.00 54 1017.3
20210414040422 47 82 0.0 0.0 0.00 0.00 0.00 55 1017.3
20210414034706 48 87 0.0 0.0 0.00 0.00 0.00 55 1017.4
20210414034208 48 85 0.0 0.0 0.00 0.00 0.00 55 1017.4
20210414033221 48 72 0.0 0.0 0.00 0.00 0.00 55 1017.3
20210414033025 48 81 0.0 0.0 0.00 0.00 0.00 55 1017.3
20210414030710 49 77 0.0 0.0 0.00 0.00 0.00 54 1017.4
20210414030212 49 74 0.0 0.0 0.00 0.00 0.00 54 1017.4
20210414024729 50 71 0.0 0.0 0.00 0.00 0.00 52 1017.6
20210414024213 50 70 0.0 0.0 0.00 0.00 0.00 52 1017.6
20210414022944 51 81 0.0 0.0 0.00 0.00 0.00 52 1017.5
20210414022734 51 84 0.0 0.0 0.00 0.00 0.00 51 1017.5
20210414020705 52 84 0.0 0.0 0.00 0.00 0.00 51 1017.4
20210414020205 52 79 0.0 0.0 0.00 0.00 0.00 51 1017.4
20210414014726 53 61 0.0 0.0 0.00 0.00 0.00 50 1017.4
20210414014217 53 86 0.0 0.0 0.00 0.00 0.00 50 1017.3
20210414013129 54 62 0.0 0.0 0.00 0.00 0.00 49 1017.4
20210414012634 54 83 0.0 0.0 0.00 0.00 0.00 49 1017.3
20210414010712 55 97 0.0 0.0 0.00 0.00 0.00 47 1017.2
20210414004720 56 83 0.0 0.0 0.00 0.00 0.00 44 1017.3
20210414004231 56 98 0.0 0.0 0.00 0.00 0.00 43 1017.2
20210414002749 57 105 0.0 0.0 0.00 0.00 0.00 43 1017.1
20210414000707 58 100 0.0 0.0 0.00 0.00 0.00 43 1017.0
20210414000217 58 89 0.0 0.0 0.00 0.00 0.00 44 1016.9
20210413234705 59 107 0.0 0.0 0.00 0.00 0.00 46 1016.7
20210413234221 59 106 0.0 0.0 0.00 0.00 0.00 47 1016.7
20210413233134 60 111 0.0 0.0 0.00 0.00 0.00 46 1016.6
20210413232801 60 98 0.0 0.0 0.00 0.00 0.00 46 1016.5
20210413230710 61 112 0.0 0.0 0.00 0.00 0.00 46 1016.5
20210413230346 61 101 0.0 0.0 0.00 0.00 0.00 46 1016.5
20210413224942 62 111 0.0 0.0 0.00 0.00 0.00 45 1016.6
20210413224227 62 100 0.0 0.0 0.00 0.00 0.00 44 1016.5
20210413223023 63 129 0.0 0.0 0.00 0.00 0.00 43 1016.5
20210413222905 63 99 0.0 0.0 0.00 0.00 0.00 43 1016.5
20210413220711 64 89 0.0 0.0 0.00 0.00 0.00 43 1016.4
20210413220438 64 134 0.0 0.0 0.00 0.00 0.00 44 1016.4
20210413214721 64 79 0.0 0.0 0.00 0.00 0.00 43 1016.4
20210413214219 64 71 0.0 0.0 0.00 0.00 0.00 44 1016.4
20210413212935 65 121 0.0 0.0 0.00 0.00 0.00 45 1016.4
20210413212819 65 116 0.0 0.0 0.00 0.00 0.00 46 1016.4
20210413210706 65 109 0.0 0.0 0.00 0.00 0.00 47 1016.3
20210413210210 66 113 0.0 0.0 0.00 0.00 0.00 48 1016.3
20210413204709 65 79 0.0 0.0 0.00 0.00 0.00 48 1016.3
20210413204210 65 117 0.0 0.0 0.00 0.00 0.00 49 1016.2
20210413203031 66 79 0.0 0.0 0.00 0.00 0.00 48 1016.3
20210413202624 65 67 0.0 0.0 0.00 0.00 0.00 48 1016.3
20210413200713 65 102 0.0 0.0 0.00 0.00 0.00 48 1016.5
20210413200354 65 68 0.0 0.0 0.00 0.00 0.00 48 1016.5
20210413194705 66 57 0.0 0.0 0.00 0.00 0.00 48 1016.5
20210413194210 66 111 0.0 0.0 0.00 0.00 0.00 48 1016.5
20210413193043 65 105 0.0 0.0 0.00 0.00 0.00 50 1016.5
20210413192841 64 76 0.0 0.0 0.00 0.00 0.00 49 1016.6
20210413190723 65 80 0.0 0.0 0.00 0.00 0.00 49 1016.7
20210413190217 65 93 0.0 0.0 0.00 0.00 0.00 49 1016.7
20210413184724 64 77 0.0 0.0 0.00 0.00 0.00 51 1016.8
20210413184301 64 63 0.0 0.0 0.00 0.00 0.00 50 1016.9
20210413182919 63 51 0.0 0.0 0.00 0.00 0.00 51 1017.2
20210413182658 63 61 0.0 0.0 0.00 0.00 0.00 51 1017.3
20210413180705 64 62 0.0 0.0 0.00 0.00 0.00 50 1017.5
20210413180216 64 133 0.0 0.0 0.00 0.00 0.00 51 1017.5
20210413174708 63 90 0.0 0.0 0.00 0.00 0.00 51 1017.7
20210413174209 63 112 0.0 0.0 0.00 0.00 0.00 51 1017.8
20210413172937 62 130 0.0 0.0 0.00 0.00 0.00 52 1017.9
20210413172817 62 118 0.0 0.0 0.00 0.00 0.00 53 1017.9
20210413170719 62 63 0.0 0.0 0.00 0.00 0.00 54 1018.1
20210413170238 61 114 0.0 0.0 0.00 0.00 0.00 54 1018.2
20210413164704 61 67 0.0 0.0 0.00 0.00 0.00 53 1018.2
20210413164218 61 38 0.0 0.0 0.00 0.00 0.00 55 1018.2
20210413163105 60 66 0.0 0.0 0.00 0.00 0.00 55 1018.4
20210413162914 60 60 0.0 0.0 0.00 0.00 0.00 55 1018.5
20210413160705 60 116 0.0 0.0 0.00 0.00 0.00 56 1018.5
20210413160345 60 123 0.0 0.0 0.00 0.00 0.00 55 1018.6
20210413154705 59 80 0.0 0.0 0.00 0.00 0.00 57 1018.7
20210413154216 59 114 0.0 0.0 0.00 0.00 0.00 57 1018.8
20210413153033 58 118 0.0 0.0 0.00 0.00 0.00 59 1018.9
20210413152838 58 88 0.0 0.0 0.00 0.00 0.00 59 1018.9
20210413150714 57 95 0.0 0.0 0.00 0.00 0.00 59 1019.1
20210413144707 56 66 0.0 0.0 0.00 0.00 0.00 61 1019.2
20210413144217 56 121 0.0 0.0 0.00 0.00 0.00 61 1019.2
20210413143100 55 75 0.0 0.0 0.00 0.00 0.00 62 1019.3
20210413142706 55 86 0.0 0.0 0.00 0.00 0.00 62 1019.4
20210413140704 54 113 0.0 0.0 0.00 0.00 0.00 65 1019.4
20210413140236 54 81 0.0 0.0 0.00 0.00 0.00 64 1019.5
20210413134709 53 108 0.0 0.0 0.00 0.00 0.00 68 1019.5
20210413134210 53 79 0.0 0.0 0.00 0.00 0.00 68 1019.6
20210413133054 52 134 0.0 0.0 0.00 0.00 0.00 69 1019.6
20210413132829 52 67 0.0 0.0 0.00 0.00 0.00 69 1019.5
20210413130705 51 108 0.0 0.0 0.00 0.00 0.00 70 1019.6
20210413130223 51 81 0.0 0.0 0.00 0.00 0.00 70 1019.6
20210413125038 50 103 0.0 0.0 0.00 0.00 0.00 72 1019.6
20210413124215 50 102 0.0 0.0 0.00 0.00 0.00 73 1019.6
20210413123034 49 87 0.0 0.0 0.00 0.00 0.00 73 1019.6
20210413120714 48 118 0.0 0.0 0.00 0.00 0.00 77 1019.5
20210413120220 48 92 0.0 0.0 0.00 0.00 0.00 78 1019.6
20210413114830 47 84 0.0 0.0 0.00 0.00 0.00 80 1019.7
20210413114221 47 83 0.0 0.0 0.00 0.00 0.00 80 1019.6
20210413113037 45 84 0.0 0.0 0.00 0.00 0.00 83 1019.4
20210413110732 45 111 0.0 0.0 0.00 0.00 0.00 84 1019.4